Grand Junction, CO

4:08 AM MDT on April 21, 2018 (GMT -0600)
Walker

Weather History for KGJT - February, 2012

Change the Weather History Date:

Wednesday, February 29, 2012

  Actual Average Record
Temperature  
Mean Temperature 39 °F 40 °F  
Max Temperature 48 °F 51 °F 66 °F (1976)
Min Temperature 29 °F 28 °F 15 °F (1960)
Degree Days  
Heating Degree Days 26 25  
Month to date heating degree days 836 878  
Since 1 July heating degree days 4099 4404  
Cooling Degree Days 0 0  
Month to date cooling degree days 0 0  
Year to date cooling degree days 0 0  
Moisture  
Dew Point 23 °F    
Average Humidity 56    
Maximum Humidity 78    
Minimum Humidity 34    
Precipitation  
Precipitation 0.00 in 0.02 in 0.11 in (1960)
Month to date precipitation 0.43 0.54  
Year to date precipitation 0.80 1.12  
Snow  
Snow 0.00 in 0.10 in 1.50 in (1960)
Month to date snowfall 1.7 3.2  
Since 1 July snowfall 5.4 15.5  
Snow Depth 0.00 in    
Sea Level Pressure  
Sea Level Pressure 29.98 in    
Wind  
Wind Speed 8 mph (SE)    
Max Wind Speed 25 mph    
Max Gust Speed 30 mph    
Visibility 10 miles    
Events      
T = Trace of Precipitation, MM = Missing Value Source: NWS Daily Summary

Daily Weather History Graph

Daily Weather History Graph

Search for Another Location

Airport or City:

Astronomy

Feb. 29, 2012 Rise Set
Actual Time 6:47 AM MST 6:06 PM MST
Civil Twilight 6:20 AM MST 6:33 PM MST
Nautical Twilight 5:49 AM MST 7:04 PM MST
Astronomical Twilight 5:18 AM MST 7:35 PM MST
Moon 10:44 AM MST (2/29) 12:52 AM MST (2/29)
Length of Visible Light 12h 12m
Length of Day
11h 18m
Waxing Crescent, 48% of the Moon is Illuminated
Feb 29
Waxing Crescent
Feb 29
First Quarter
Mar 8
Full
Mar 14
Last Quarter
Mar 22
New

Hourly Weather History & Observations

Time (MST) Temp. Windchill Dew Point Humidity Pressure Visibility Wind Dir Wind Speed Gust Speed Precip Events Conditions
12:53 AM 32.0 °F 28.7 °F 24.1 °F 73% 30.04 in 10.0 mi ENE 3.5 mph - N/A   Overcast
1:53 AM 32.0 °F - 24.1 °F 73% 30.07 in 10.0 mi Calm Calm - N/A   Mostly Cloudy
2:53 AM 30.0 °F - 24.1 °F 79% 30.07 in 10.0 mi Calm Calm - N/A   Scattered Clouds
3:53 AM 34.0 °F 29.8 °F 23.0 °F 64% 30.05 in 10.0 mi West 4.6 mph - N/A   Overcast
4:53 AM 32.0 °F 28.7 °F 25.0 °F 75% 30.06 in 10.0 mi East 3.5 mph - N/A   Overcast
5:53 AM 30.9 °F 23.5 °F 24.1 °F 76% 30.09 in 10.0 mi SE 8.1 mph - N/A   Partly Cloudy
6:53 AM 32.0 °F 26.4 °F 24.1 °F 73% 30.09 in 10.0 mi SSE 5.8 mph - N/A   Clear
7:53 AM 34.0 °F 29.8 °F 25.0 °F 70% 30.11 in 10.0 mi SE 4.6 mph - N/A   Clear
8:53 AM 35.1 °F 27.4 °F 25.0 °F 67% 30.12 in 10.0 mi SSE 10.4 mph - N/A   Scattered Clouds
9:53 AM 39.0 °F 30.6 °F 24.1 °F 55% 30.10 in 10.0 mi SSE 15.0 mph - N/A   Scattered Clouds
10:53 AM 41.0 °F 32.5 °F 21.9 °F 47% 30.08 in 10.0 mi SSE 17.3 mph - N/A   Clear
11:53 AM 44.1 °F 35.2 °F 23.0 °F 43% 30.06 in 10.0 mi SSE 23.0 mph 29.9 mph N/A   Clear
12:53 PM 45.0 °F 37.6 °F 21.9 °F 40% 30.00 in 10.0 mi SE 17.3 mph 26.5 mph N/A   Scattered Clouds
1:53 PM 46.9 °F - 21.9 °F 37% 29.96 in 10.0 mi SSE 17.3 mph 26.5 mph N/A   Clear
2:53 PM 46.9 °F - 21.0 °F 36% 29.94 in 10.0 mi SSE 15.0 mph 19.6 mph N/A   Overcast
3:53 PM 46.9 °F - 19.9 °F 34% 29.89 in 10.0 mi South 12.7 mph - N/A   Overcast
4:53 PM 46.0 °F - 21.0 °F 37% 29.88 in 10.0 mi Calm Calm - N/A   Overcast
5:53 PM 44.1 °F 42.5 °F 21.9 °F 42% 29.86 in 10.0 mi Variable 3.5 mph - N/A   Partly Cloudy
6:53 PM 39.0 °F - 23.0 °F 53% 29.90 in 10.0 mi Calm Calm - N/A   Clear
7:53 PM 39.0 °F 33.4 °F 21.0 °F 49% 29.87 in 10.0 mi SSE 8.1 mph - N/A   Clear
8:53 PM 37.9 °F 34.4 °F 21.9 °F 53% 29.86 in 10.0 mi East 4.6 mph - N/A   Clear
9:53 PM 42.1 °F 34.9 °F 19.0 °F 40% 29.80 in 10.0 mi SE 13.8 mph - N/A   Clear
10:53 PM 41.0 °F 38.0 °F 19.9 °F 43% 29.78 in 10.0 mi South 4.6 mph - N/A   Clear
11:53 PM 36.0 °F 32.1 °F 21.9 °F 57% 29.79 in 10.0 mi ENE 4.6 mph - N/A   Clear